sat.trackr.live / text

‹ back to catalog

STARLINK-1525

NORAD 46066 · 2020-055AR

PAYLOAD ACTIVE UNKNOWN

§ Identity

Operator
Country
US
Launch date
2020-08-07
Launch site
AFETR
Launch vehicle
Mass (kg)
RCS (m²)

Purposes: comms

External: N2YO · Heavens-Above · Gunter

§ Orbital elements

Epoch: 2026-09-20T04:00:25.463232Z

Period
92.05 min
Inclination
53.0424°
Eccentricity
0.0010950
Mean motion
15.64429968 rev/d
Perigee alt
367.5 km
Apogee alt
382.3 km
Semi-major
6,753.0 km
B*
2.2204e-3
RAAN
254.0634°
Arg perigee
60.6241°
Mean anomaly
299.5865°
Rev number
33,931

§ Raw data

STARLINK-15251 46066U 20055AR  26263.16696138  .00223210  00000+0  22204-2 0  99942 46066  53.0424 254.0634 0010950  60.6241 299.5865 15.64429968339317

JSON: /api/v1/satellites/46066 · /tle

For live sub-satellite position, see the globe view (requires WebGL).

§ Visibility from observer

Set your observer location to see the next 7 days of passes ≥ 10°. The values pass through the URL so the page stays shareable.

No JS? Fill the form by hand. The geolocation button needs JavaScript.